Location: Westminster
(33.3626°N, 96.4619°W)
Time: 07:53:05
(UTC+00:00)

Cosmos 1515 Rocket - Pass Details

Date: 29 June 2022
Orbit: 604 x 630 km, 82.5° (Epoch: 14 August)

Event Time Altitude Azimuth Distance (km) Brightness Sun altitude
Rises 10:41:57 0° 336° (NNW) 2,896 7.1 -7.5°
Reaches altitude 10° 10:44:35 10° 321° (NW) 1,981 6.1 -7.0°
Maximum altitude 10:47:55 22° 271° (W) 1,361 4.9 -6.4°
Drops below altitude 10° 10:51:14 10° 221° (SW) 1,959 5.5 -5.9°
Enters shadow 10:52:51 - 210° (SSW) 2,502 6.1 -5.6°
